Location: *
(32.3300°N, 34.8500°E)
Time: 04:34:39
(UTC+00:00)

Cosmos 2184 Rocket - Pass Details

Date: 22 October 2019
Orbit: 960 x 1001 km, 82.9° (Epoch: 18 November)

Event Time Altitude Azimuth Distance (km) Brightness Sun altitude
Exits shadow 02:19:24 32° 256° (WSW) 1,592 4.6 -19.6°
Maximum altitude 02:20:43 36° 281° (WNW) 1,504 4.5 -19.4°
Drops below altitude 10° 02:26:25 10° 347° (NNW) 2,739 6.2 -18.2°
Sets 02:29:12 0° 356° (N) 3,697 7.0 -17.6°
